Language: 


Des rapports , des résumés tant et plus, au choix de chacun....


Données statistiques de la station
Quotidien Rapport Novembre 22, 2017 Unités:  Anglais    Métrique   les deux
« Précédent Jour
Suivant Jour »
Quotidien Hebdomadaire Mensuel Annuel Actuel
  Haut: Bas: Moyen:
Température: TemperatureC °F 10.2 °F 11.7 °F
Pt de rosée: DewpointC °F 6.0 °F 8.8 °F
Humidité: Humidity % 66 % 82 %
Vitesse du vent: WindSpeedKMH mph 1.4 mph 13.8 mph
Rafales: WindSpeedGustKMH mph - -
Vent:- - SSW
Pression: PressurehPa in 997.9 in -
Précipitation: 0.0 in    
Historical Graphs
 
 
Données statistiques pour Novembre 22, 2017
Heure Température Point de rosée Pression Vent Vitesse du vent Refales Humidité Pluie (taux horaire)
TemperatureC °F DewpointC °F PressurehPa in Calm     Humidity % HourlyPrecipMM in
00:04 11.4 °F 10.0 °F 1010.0 in SSW 16.3 mph 19.1 mph 91 % 0.0 in
00:09 11.4 °F 10.0 °F 1010.0 in SW 12.6 mph 18.0 mph 91 % 0.0 in
00:14 11.4 °F 10.0 °F 1010.0 in SSW 11.6 mph 19.5 mph 91 % 0.0 in
00:19 11.5 °F 10.0 °F 1010.0 in SSW 11.9 mph 19.5 mph 91 % 0.0 in
00:24 11.5 °F 10.0 °F 1010.0 in SW 17.7 mph 19.5 mph 90 % 0.0 in
00:29 11.6 °F 10.0 °F 1009.0 in SSW 10.5 mph 19.8 mph 90 % 0.0 in
00:34 11.6 °F 10.0 °F 1009.0 in SSW 12.2 mph 20.9 mph 89 % 0.0 in
00:39 11.6 °F 10.0 °F 1009.0 in South 17.2 mph 20.9 mph 89 % 0.0 in
00:41 11.7 °F 10.0 °F 1009.0 in SSW 20.6 mph 23.8 mph 89 % 0.0 in
00:57 11.7 °F 10.0 °F 1009.0 in SSW 12.6 mph 17.7 mph 89 % 0.0 in
01:02 11.7 °F 10.0 °F 1009.0 in South 15.4 mph 17.2 mph 89 % 0.0 in
01:12 11.7 °F 10.0 °F 1009.0 in SSW 14.0 mph 17.2 mph 89 % 0.0 in
01:27 11.7 °F 10.0 °F 1009.0 in SSW 9.3 mph 15.8 mph 89 % 0.0 in
01:32 11.6 °F 10.0 °F 1009.0 in SSW 6.4 mph 10.1 mph 89 % 0.0 in
01:37 11.5 °F 10.0 °F 1009.0 in SSW 6.1 mph 9.3 mph 89 % 0.0 in
01:42 11.5 °F 10.0 °F 1009.0 in SSW 4.7 mph 11.6 mph 89 % 0.0 in
01:47 11.5 °F 10.0 °F 1009.0 in SSW 7.9 mph 11.6 mph 90 % 0.0 in
01:52 11.5 °F 10.0 °F 1009.0 in SSW 5.8 mph 11.9 mph 90 % 0.0 in
02:02 11.5 °F 10.0 °F 1009.0 in South 19.1 mph 19.1 mph 90 % 0.0 in
02:12 11.6 °F 10.0 °F 1007.0 in SSW 17.2 mph 20.9 mph 90 % 0.0 in
02:17 11.6 °F 10.0 °F 1007.0 in WSW 13.0 mph 28.0 mph 89 % 0.0 in
02:22 11.6 °F 10.0 °F 1007.0 in SSW 17.2 mph 28.0 mph 89 % 0.0 in
02:27 11.6 °F 10.0 °F 1007.0 in SW 16.3 mph 27.7 mph 89 % 0.0 in
02:32 11.6 °F 10.0 °F 1007.0 in SSW 14.0 mph 27.7 mph 89 % 0.0 in
02:43 11.6 °F 10.0 °F 1007.0 in SSW 12.6 mph 21.9 mph 89 % 0.0 in
02:48 11.6 °F 10.0 °F 1007.0 in SW 10.1 mph 17.7 mph 89 % 0.0 in
02:53 11.6 °F 10.0 °F 1007.0 in South 14.0 mph 21.2 mph 89 % 0.0 in
02:58 11.6 °F 10.0 °F 1007.0 in WSW 1.4 mph 21.2 mph 89 % 0.0 in
03:13 11.6 °F 10.0 °F 1007.0 in SSW 3.2 mph 16.3 mph 90 % 0.0 in
03:18 11.6 °F 10.0 °F 1007.0 in South 11.9 mph 16.3 mph 90 % 0.0 in
03:33 11.5 °F 10.0 °F 1007.0 in SSW 14.0 mph 14.0 mph 90 % 0.0 in
03:38 11.5 °F 10.0 °F 1007.0 in SW 9.3 mph 20.9 mph 90 % 0.0 in
03:43 11.6 °F 10.0 °F 1007.0 in SSW 10.1 mph 20.9 mph 90 % 0.0 in
03:48 11.6 °F 10.0 °F 1007.0 in SSW 16.9 mph 21.2 mph 90 % 0.0 in
03:53 11.6 °F 10.0 °F 1007.0 in WSW 11.9 mph 21.2 mph 90 % 0.0 in
03:58 11.5 °F 10.0 °F 1007.0 in SW 16.3 mph 19.8 mph 90 % 0.0 in
04:03 11.5 °F 10.0 °F 1007.0 in SW 9.0 mph 17.7 mph 90 % 0.0 in
04:08 11.5 °F 10.0 °F 1007.0 in SSW 19.5 mph 21.2 mph 90 % 0.0 in
04:13 11.6 °F 10.0 °F 1007.0 in SSW 17.2 mph 24.8 mph 90 % 0.0 in
04:19 11.6 °F 10.0 °F 1007.0 in WSW 13.7 mph 24.8 mph 90 % 0.0 in
04:25 11.6 °F 10.0 °F 1007.0 in SW 13.7 mph 21.2 mph 90 % 0.0 in
04:30 11.5 °F 10.0 °F 1007.0 in SSW 15.8 mph 20.6 mph 90 % 0.0 in
04:35 11.5 °F 10.0 °F 1007.0 in SSW 19.5 mph 20.1 mph 90 % 0.0 in
04:41 11.5 °F 10.0 °F 1007.0 in South 12.2 mph 20.1 mph 90 % 0.0 in
04:46 11.4 °F 10.0 °F 1007.0 in SSW 20.6 mph 23.3 mph 90 % 0.0 in
04:51 11.4 °F 10.0 °F 1007.0 in SW 14.0 mph 23.3 mph 90 % 0.0 in
04:56 11.4 °F 10.0 °F 1006.0 in SSW 13.0 mph 23.0 mph 90 % 0.0 in
05:01 11.3 °F 10.0 °F 1006.0 in South 16.3 mph 20.1 mph 90 % 0.0 in
05:06 11.3 °F 10.0 °F 1006.0 in SSW 12.2 mph 19.5 mph 90 % 0.0 in
05:11 11.3 °F 10.0 °F 1007.0 in SSW 9.7 mph 24.5 mph 91 % 0.0 in
05:16 11.4 °F 10.0 °F 1007.0 in SW 11.1 mph 24.5 mph 91 % 0.0 in
05:21 11.3 °F 10.0 °F 1007.0 in SW 15.4 mph 20.1 mph 91 % 0.0 in
05:26 11.3 °F 10.0 °F 1007.0 in SW 18.0 mph 18.0 mph 91 % 0.0 in
05:32 11.3 °F 10.0 °F 1007.0 in WSW 10.1 mph 20.9 mph 91 % 0.0 in
05:37 11.3 °F 10.0 °F 1007.0 in SSW 10.5 mph 20.9 mph 91 % 0.0 in
05:42 11.3 °F 10.0 °F 1006.0 in SSW 15.1 mph 20.9 mph 91 % 0.0 in
05:47 11.2 °F 10.0 °F 1006.0 in South 9.3 mph 17.7 mph 91 % 0.0 in
05:52 11.1 °F 10.0 °F 1006.0 in SSW 13.0 mph 16.3 mph 91 % 0.0 in
06:02 11.0 °F 10.0 °F 1006.0 in SSW 12.6 mph 19.5 mph 92 % 0.0 in
06:07 11.0 °F 10.0 °F 1006.0 in SSW 16.3 mph 19.5 mph 92 % 0.0 in
06:12 10.9 °F 10.0 °F 1007.0 in SSW 14.8 mph 17.2 mph 93 % 0.0 in
06:17 10.9 °F 10.0 °F 1007.0 in SW 10.1 mph 18.0 mph 93 % 0.0 in
06:22 10.9 °F 10.0 °F 1007.0 in South 9.0 mph 18.0 mph 93 % 0.0 in
06:27 11.0 °F 10.0 °F 1006.0 in SSW 9.0 mph 15.4 mph 93 % 0.0 in
06:32 11.0 °F 10.0 °F 1006.0 in South 9.0 mph 17.2 mph 93 % 0.0 in
06:37 11.0 °F 10.0 °F 1006.0 in South 9.3 mph 17.2 mph 94 % 0.0 in
06:42 11.0 °F 10.0 °F 1006.0 in South 6.1 mph 16.3 mph 94 % 0.0 in
06:47 11.0 °F 10.0 °F 1006.0 in SW 11.9 mph 17.7 mph 94 % 0.0 in
06:52 11.0 °F 10.0 °F 1006.0 in South 7.9 mph 19.8 mph 94 % 0.0 in
06:57 11.0 °F 10.0 °F 1006.0 in SSW 10.5 mph 19.8 mph 94 % 0.0 in
07:03 11.0 °F 10.0 °F 1006.0 in SSW 19.1 mph 20.1 mph 94 % 0.0 in
07:13 11.1 °F 10.0 °F 1006.0 in SSW 13.0 mph 20.1 mph 94 % 0.0 in
07:18 11.1 °F 10.0 °F 1006.0 in SSW 16.3 mph 16.6 mph 94 % 0.0 in
07:28 11.1 °F 10.0 °F 1007.0 in SSW 13.0 mph 16.9 mph 94 % 0.0 in
07:38 11.1 °F 10.0 °F 1007.0 in SW 9.0 mph 19.8 mph 94 % 0.0 in
07:53 10.8 °F 10.0 °F 1007.0 in South 9.3 mph 19.8 mph 94 % 0.0 in
07:58 10.7 °F 10.0 °F 1006.0 in SW 7.9 mph 19.8 mph 94 % 0.0 in
08:03 10.6 °F 10.0 °F 1006.0 in South 10.1 mph 20.9 mph 94 % 0.0 in
08:13 10.4 °F 9.0 °F 1006.0 in SSW 13.7 mph 19.5 mph 94 % 0.0 in
08:18 10.4 °F 10.0 °F 1006.0 in SSW 13.0 mph 23.8 mph 95 % 0.0 in
08:23 10.4 °F 10.0 °F 1006.0 in SSW 17.7 mph 23.8 mph 95 % 0.0 in
08:28 10.3 °F 10.0 °F 1006.0 in WSW 12.2 mph 20.9 mph 95 % 0.0 in
08:33 10.3 °F 10.0 °F 1006.0 in SW 13.7 mph 20.9 mph 95 % 0.0 in
08:39 10.3 °F 10.0 °F 1006.0 in WSW 13.0 mph 22.7 mph 95 % 0.0 in
08:44 10.3 °F 10.0 °F 1006.0 in SSW 16.6 mph 22.7 mph 95 % 0.0 in
08:54 10.2 °F 10.0 °F 1006.0 in South 10.8 mph 17.2 mph 95 % 0.0 in
09:04 10.2 °F 10.0 °F 1007.0 in SSW 9.7 mph 22.4 mph 95 % 0.0 in
09:09 10.2 °F 10.0 °F 1007.0 in South 13.7 mph 22.4 mph 95 % 0.0 in
09:14 10.3 °F 10.0 °F 1007.0 in South 9.7 mph 17.7 mph 95 % 0.0 in
09:19 10.4 °F 10.0 °F 1007.0 in SSW 13.0 mph 20.9 mph 95 % 0.0 in
09:24 10.4 °F 10.0 °F 1007.0 in SSW 8.7 mph 20.9 mph 95 % 0.0 in
09:26 10.4 °F 10.0 °F 1007.0 in SSW 8.7 mph 19.5 mph 95 % 0.0 in
09:31 10.5 °F 10.0 °F 1007.0 in SSW 13.7 mph 19.8 mph 95 % 0.0 in
09:36 10.6 °F 10.0 °F 1007.0 in SSW 13.0 mph 19.8 mph 95 % 0.0 in
09:51 10.7 °F 10.0 °F 1007.0 in SSW 15.4 mph 23.8 mph 94 % 0.0 in
09:56 10.7 °F 10.0 °F 1006.0 in SE 9.3 mph 23.8 mph 94 % 0.0 in
10:06 11.1 °F 10.0 °F 1006.0 in SSW 16.6 mph 21.2 mph 93 % 0.0 in
10:11 11.1 °F 10.0 °F 1006.0 in SSW 19.5 mph 22.4 mph 92 % 0.0 in
10:22 11.3 °F 10.0 °F 1006.0 in South 11.9 mph 22.4 mph 91 % 0.0 in
10:27 11.5 °F 10.0 °F 1006.0 in South 17.2 mph 20.1 mph 91 % 0.0 in
10:32 11.8 °F 10.0 °F 1006.0 in WSW 10.1 mph 20.6 mph 90 % 0.0 in
10:37 11.8 °F 10.0 °F 1006.0 in South 16.9 mph 20.9 mph 89 % 0.0 in
10:47 12.1 °F 10.0 °F 1006.0 in SW 9.7 mph 23.3 mph 87 % 0.0 in
10:52 12.2 °F 10.0 °F 1006.0 in South 17.2 mph 21.6 mph 87 % 0.0 in
10:57 12.2 °F 10.0 °F 1006.0 in SSW 13.7 mph 21.2 mph 87 % 0.0 in
11:02 12.2 °F 10.0 °F 1006.0 in SSW 11.9 mph 21.2 mph 87 % 0.0 in
11:07 12.2 °F 10.0 °F 1006.0 in South 21.2 mph 22.7 mph 87 % 0.0 in
11:12 12.2 °F 10.0 °F 1006.0 in SW 19.8 mph 24.5 mph 87 % 0.0 in
11:17 12.2 °F 10.0 °F 1006.0 in SSW 23.8 mph 24.5 mph 87 % 0.0 in
11:22 12.2 °F 10.0 °F 1006.0 in South 13.7 mph 24.5 mph 87 % 0.0 in
11:27 12.2 °F 10.0 °F 1006.0 in SSW 15.8 mph 24.5 mph 87 % 0.0 in
11:32 12.2 °F 10.0 °F 1006.0 in South 20.1 mph 24.8 mph 87 % 0.0 in
11:38 12.2 °F 10.0 °F 1006.0 in SSE 23.3 mph 25.3 mph 87 % 0.0 in
11:48 12.2 °F 10.0 °F 1005.0 in South 19.8 mph 25.6 mph 87 % 0.0 in
11:53 12.6 °F 10.0 °F 1005.0 in SSW 24.5 mph 25.6 mph 83 % 0.0 in
12:03 12.7 °F 10.0 °F 1005.0 in South 12.6 mph 25.6 mph 83 % 0.0 in
12:04 12.7 °F 10.0 °F 1005.0 in SSW 19.1 mph 25.6 mph 83 % 0.0 in
12:14 12.9 °F 10.0 °F 1005.0 in SSW 20.6 mph 28.8 mph 82 % 0.0 in
12:19 12.8 °F 10.0 °F 1005.0 in South 9.7 mph 25.9 mph 82 % 0.0 in
12:24 13.0 °F 10.0 °F 1005.0 in South 16.3 mph 23.3 mph 81 % 0.0 in
12:29 13.0 °F 10.0 °F 1005.0 in South 13.7 mph 23.3 mph 81 % 0.0 in
12:34 13.0 °F 10.0 °F 1005.0 in South 16.9 mph 23.3 mph 81 % 0.0 in
12:39 13.2 °F 10.0 °F 1005.0 in South 16.6 mph 21.2 mph 80 % 0.0 in
12:44 13.4 °F 10.0 °F 1005.0 in South 16.3 mph 21.2 mph 80 % 0.0 in
12:49 13.4 °F 10.0 °F 1005.0 in SSW 17.2 mph 19.8 mph 80 % 0.0 in
12:54 13.4 °F 10.0 °F 1005.0 in South 13.0 mph 19.5 mph 80 % 0.0 in
12:59 13.8 °F 10.0 °F 1005.0 in South 9.0 mph 17.2 mph 79 % 0.0 in
13:04 14.0 °F 10.0 °F 1005.0 in South 7.2 mph 17.2 mph 78 % 0.0 in
13:14 14.4 °F 11.0 °F 1005.0 in SSW 7.9 mph 15.8 mph 77 % 0.0 in
13:19 14.4 °F 10.0 °F 1005.0 in SSW 14.3 mph 21.6 mph 73 % 0.0 in
13:24 14.5 °F 10.0 °F 1005.0 in SSW 6.4 mph 21.6 mph 73 % 0.0 in
13:29 14.6 °F 10.0 °F 1003.9 in SSW 15.4 mph 16.9 mph 72 % 0.0 in
13:40 14.7 °F 9.0 °F 1003.9 in SSW 14.3 mph 21.6 mph 69 % 0.0 in
13:45 14.7 °F 9.0 °F 1003.9 in SSW 17.7 mph 21.6 mph 69 % 0.0 in
13:50 14.7 °F 9.0 °F 1003.9 in SW 22.7 mph 22.7 mph 68 % 0.0 in
14:00 14.8 °F 9.0 °F 1002.9 in SSE 6.4 mph 22.7 mph 68 % 0.0 in
14:05 14.9 °F 9.0 °F 1002.9 in SSW 9.7 mph 17.2 mph 67 % 0.0 in
14:10 14.9 °F 9.0 °F 1002.9 in SSE 11.1 mph 17.2 mph 67 % 0.0 in
14:15 14.8 °F 9.0 °F 1002.9 in SSW 10.5 mph 17.2 mph 68 % 0.0 in
14:20 14.8 °F 9.0 °F 1002.9 in South 10.5 mph 20.6 mph 67 % 0.0 in
14:25 14.7 °F 9.0 °F 1002.9 in SSW 15.8 mph 20.6 mph 66 % 0.0 in
14:30 14.7 °F 9.0 °F 1002.9 in SSW 19.5 mph 19.5 mph 68 % 0.0 in
14:35 14.7 °F 9.0 °F 1002.9 in SSW 13.7 mph 19.5 mph 68 % 0.0 in
14:40 14.7 °F 9.0 °F 1002.9 in South 14.8 mph 19.5 mph 68 % 0.0 in
14:45 14.7 °F 9.0 °F 1002.9 in South 11.9 mph 20.1 mph 68 % 0.0 in
15:00 14.4 °F 9.0 °F 1002.9 in South 16.6 mph 23.0 mph 68 % 0.0 in
15:05 14.3 °F 9.0 °F 1002.9 in South 13.7 mph 19.5 mph 68 % 0.0 in
15:10 14.2 °F 9.0 °F 1002.9 in South 16.3 mph 19.1 mph 69 % 0.0 in
15:15 14.2 °F 9.0 °F 1002.9 in South 14.0 mph 16.6 mph 69 % 0.0 in
15:20 14.0 °F 9.0 °F 1002.9 in South 14.3 mph 26.2 mph 68 % 0.0 in
15:25 14.0 °F 9.0 °F 1002.9 in South 10.5 mph 26.2 mph 69 % 0.0 in
15:31 13.9 °F 9.0 °F 1002.9 in South 16.6 mph 19.5 mph 70 % 0.0 in
15:36 13.7 °F 9.0 °F 1002.9 in SSW 20.1 mph 20.1 mph 70 % 0.0 in
15:51 13.5 °F 9.0 °F 1001.9 in SSE 15.4 mph 16.6 mph 71 % 0.0 in
15:56 13.4 °F 9.0 °F 1001.9 in South 16.9 mph 17.2 mph 71 % 0.0 in
16:01 13.2 °F 9.0 °F 1001.9 in SSW 14.3 mph 18.0 mph 71 % 0.0 in
16:06 13.1 °F 8.0 °F 1001.9 in South 16.3 mph 21.2 mph 71 % 0.0 in
16:11 12.8 °F 9.0 °F 1001.9 in SSE 10.8 mph 21.2 mph 72 % 0.0 in
16:12 12.8 °F 9.0 °F 1001.9 in SSW 13.0 mph 21.2 mph 72 % 0.0 in
16:17 12.7 °F 8.0 °F 1001.9 in SSW 16.6 mph 20.1 mph 72 % 0.0 in
16:22 12.7 °F 8.0 °F 1001.9 in SSW 16.6 mph 20.1 mph 71 % 0.0 in
16:27 12.5 °F 8.0 °F 1001.9 in South 12.2 mph 19.5 mph 70 % 0.0 in
16:32 12.5 °F 8.0 °F 1001.9 in SSE 11.9 mph 19.8 mph 71 % 0.0 in
16:42 12.3 °F 8.0 °F 1000.9 in South 9.7 mph 19.8 mph 71 % 0.0 in
16:47 12.1 °F 8.0 °F 1000.9 in South 12.2 mph 16.6 mph 72 % 0.0 in
16:52 12.0 °F 8.0 °F 1000.9 in SSE 19.8 mph 19.8 mph 73 % 0.0 in
16:57 12.0 °F 8.0 °F 1000.9 in SSW 14.3 mph 20.6 mph 73 % 0.0 in
17:02 11.8 °F 7.0 °F 1000.9 in South 13.0 mph 20.6 mph 74 % 0.0 in
17:07 11.7 °F 7.0 °F 1000.9 in South 16.3 mph 17.7 mph 74 % 0.0 in
17:12 11.7 °F 7.0 °F 1000.9 in South 12.2 mph 20.1 mph 74 % 0.0 in
17:17 11.5 °F 8.0 °F 1000.9 in South 10.1 mph 20.1 mph 75 % 0.0 in
17:28 11.4 °F 7.0 °F 1000.9 in South 13.0 mph 19.8 mph 75 % 0.0 in
17:38 11.1 °F 7.0 °F 1000.9 in SSW 13.7 mph 16.9 mph 75 % 0.0 in
17:43 11.1 °F 7.0 °F 1000.9 in South 10.5 mph 16.9 mph 75 % 0.0 in
17:53 10.9 °F 7.0 °F 1000.9 in SSW 10.1 mph 19.1 mph 76 % 0.0 in
17:58 10.9 °F 7.0 °F 999.9 in SSW 10.5 mph 16.6 mph 76 % 0.0 in
18:03 10.9 °F 7.0 °F 999.9 in SSW 9.7 mph 17.2 mph 76 % 0.0 in
18:13 11.0 °F 7.0 °F 1000.9 in South 13.0 mph 20.9 mph 75 % 0.0 in
18:18 10.9 °F 7.0 °F 1000.9 in South 11.6 mph 20.9 mph 75 % 0.0 in
18:20 10.9 °F 7.0 °F 1000.9 in South 11.6 mph 20.9 mph 75 % 0.0 in
18:26 10.9 °F 7.0 °F 999.9 in South 12.2 mph 20.6 mph 75 % 0.0 in
18:31 10.9 °F 7.0 °F 999.9 in South 20.1 mph 25.3 mph 75 % 0.0 in
18:36 11.0 °F 6.0 °F 999.9 in South 16.3 mph 25.3 mph 73 % 0.0 in
18:41 11.0 °F 6.0 °F 1000.9 in South 13.0 mph 24.8 mph 73 % 0.0 in
18:51 10.9 °F 6.0 °F 1000.9 in SSW 15.1 mph 24.8 mph 73 % 0.0 in
19:01 10.9 °F 6.0 °F 1000.9 in SSW 15.8 mph 28.0 mph 73 % 0.0 in
19:11 11.0 °F 6.0 °F 1000.9 in South 13.7 mph 31.4 mph 72 % 0.0 in
19:16 11.1 °F 6.0 °F 1000.9 in South 22.4 mph 31.4 mph 71 % 0.0 in
19:21 11.0 °F 6.0 °F 1000.9 in SSW 10.5 mph 24.5 mph 71 % 0.0 in
19:26 11.0 °F 6.0 °F 999.9 in South 13.0 mph 24.5 mph 71 % 0.0 in
19:31 10.9 °F 6.0 °F 999.9 in SSW 19.8 mph 28.0 mph 72 % 0.0 in
19:41 10.9 °F 6.0 °F 998.9 in South 20.6 mph 24.5 mph 72 % 0.0 in
19:46 10.8 °F 6.0 °F 998.9 in South 12.6 mph 24.5 mph 73 % 0.0 in
19:56 10.8 °F 6.0 °F 998.9 in SSW 27.4 mph 27.4 mph 73 % 0.0 in
20:01 10.9 °F 6.0 °F 998.9 in South 18.3 mph 27.4 mph 72 % 0.0 in
20:06 10.9 °F 6.0 °F 998.9 in South 20.1 mph 28.5 mph 72 % 0.0 in
20:16 10.8 °F 6.0 °F 998.9 in South 11.1 mph 27.4 mph 72 % 0.0 in
20:22 10.9 °F 6.0 °F 998.9 in SW 9.0 mph 27.4 mph 72 % 0.0 in
20:26 10.8 °F 6.0 °F 998.9 in South 21.2 mph 27.4 mph 72 % 0.0 in
20:32 10.7 °F 6.0 °F 998.9 in SSW 24.8 mph 24.8 mph 72 % 0.0 in
20:37 10.7 °F 6.0 °F 998.9 in SSW 12.6 mph 24.8 mph 73 % 0.0 in
20:42 10.7 °F 6.0 °F 998.9 in SSW 17.2 mph 23.8 mph 73 % 0.0 in
20:47 10.8 °F 6.0 °F 998.9 in SSW 20.6 mph 21.2 mph 72 % 0.0 in
20:52 10.8 °F 6.0 °F 998.9 in SSW 13.0 mph 27.0 mph 72 % 0.0 in
21:07 10.8 °F 6.0 °F 998.9 in South 9.7 mph 20.9 mph 72 % 0.0 in
21:12 10.7 °F 6.0 °F 998.9 in SSW 19.8 mph 20.9 mph 72 % 0.0 in
21:17 10.7 °F 6.0 °F 998.9 in SSW 10.5 mph 21.6 mph 72 % 0.0 in
21:22 10.7 °F 6.0 °F 998.9 in SSW 17.7 mph 21.6 mph 72 % 0.0 in
21:27 10.7 °F 6.0 °F 998.9 in South 21.2 mph 21.2 mph 72 % 0.0 in
21:32 10.8 °F 6.0 °F 998.9 in SW 11.9 mph 28.0 mph 72 % 0.0 in
21:42 10.9 °F 6.0 °F 998.9 in SSW 16.3 mph 27.0 mph 71 % 0.0 in
21:47 10.9 °F 6.0 °F 998.9 in SSW 17.7 mph 27.4 mph 71 % 0.0 in
21:52 10.9 °F 6.0 °F 998.9 in South 17.7 mph 27.4 mph 71 % 0.0 in
21:57 10.9 °F 6.0 °F 998.9 in South 21.2 mph 25.9 mph 71 % 0.0 in
22:02 10.9 °F 6.0 °F 998.9 in South 12.2 mph 37.5 mph 71 % 0.0 in
22:12 10.7 °F 6.0 °F 997.9 in South 8.7 mph 24.8 mph 72 % 0.0 in
22:22 10.6 °F 6.0 °F 997.9 in South 12.2 mph 21.9 mph 72 % 0.0 in
22:27 10.6 °F 6.0 °F 998.9 in South 16.9 mph 21.9 mph 73 % 0.0 in
22:32 10.6 °F 6.0 °F 998.9 in SSW 17.7 mph 23.8 mph 73 % 0.0 in
22:37 10.6 °F 6.0 °F 998.9 in South 17.2 mph 23.8 mph 73 % 0.0 in
22:47 10.5 °F 6.0 °F 998.9 in South 19.8 mph 20.6 mph 73 % 0.0 in
22:52 10.6 °F 6.0 °F 998.9 in SSE 14.0 mph 19.8 mph 73 % 0.0 in
23:11 10.7 °F 6.0 °F 998.9 in South 5.8 mph 16.3 mph 73 % 0.0 in
23:16 10.7 °F 6.0 °F 998.9 in South 14.0 mph 19.5 mph 73 % 0.0 in
23:21 10.8 °F 6.0 °F 998.9 in South 14.0 mph 20.6 mph 73 % 0.0 in
23:41 11.0 °F 6.0 °F 997.9 in SSW 17.7 mph 20.9 mph 73 % 0.0 in
23:46 11.1 °F 6.0 °F 997.9 in SSW 11.9 mph 19.8 mph 72 % 0.0 in
23:51 11.1 °F 6.0 °F 997.9 in South 12.6 mph 19.5 mph 72 % 0.0 in
23:56 11.2 °F 7.0 °F 997.9 in SW 11.6 mph 20.9 mph 72 % 0.0 in
Le Gheer Warneton
Courtoisie de Weather Underground - 2 mb

Mise a jour : 24/02/2018 15:12:12
Généré par Cumulus 1.9.4 (1099)